FW1140 Weather Reports


time (UTC)temp
F
wind
direction
speed
knots
gust
knots
rain 1hr
in
rain 24hr
in
rain mn
in
humidity
%
barometer
mb
20260906193017 0 0.0 0.0 0.00 0.00 0.00 1011.4
20260906191547 0 0.0 0.0 0.00 0.00 0.00 1011.0
20260906190004 0 0.0 0.0 0.00 0.00 0.00 1010.9
20260906184525 0 0.0 0.0 0.00 0.00 0.00 1010.6
20260906183014 81 119 1.7 5.2 0.00 0.00 0.00 83 1010.4
20260906181522 80 92 1.7 4.3 0.00 0.00 0.00 85 1010.9
20260906180040 80 127 3.5 6.1 0.00 0.00 0.00 86 1011.5
20260906174602 77 116 4.3 7.0 0.00 0.00 0.00 91 1011.4
20260906173121 76 118 4.3 7.0 0.00 0.00 0.00 94 1011.5
20260906171524 75 119 4.3 7.0 0.00 0.00 0.00 95 1011.8
20260906170034 74 148 3.5 6.1 0.00 0.00 0.00 95 1011.8
20260906164546 74 128 2.6 6.1 0.00 0.00 0.00 95 1011.7
20260906163042 74 154 0.9 5.2 0.00 0.00 0.00 95 1011.8
20260906161539 73 68 2.6 4.3 0.00 0.00 0.00 95 1011.7
20260906160040 73 113 2.6 5.2 0.00 0.00 0.00 96 1011.6
20260906154556 73 129 2.6 6.1 0.00 0.00 0.00 95 1011.5
20260906153110 73 98 1.7 4.3 0.00 0.00 0.00 95 1011.5
20260906151547 73 124 1.7 4.3 0.00 0.00 0.00 95 1011.7
20260906150057 72 96 1.7 4.3 0.00 0.00 0.00 95 1011.7
20260906144518 72 114 1.7 5.2 0.00 0.00 0.00 95 1011.5
20260906143108 72 114 3.5 5.2 0.00 0.00 0.00 95 1011.2
20260906141526 72 101 2.6 6.1 0.00 0.00 0.00 95 1011.4
20260906140042 72 133 2.6 6.1 0.00 0.00 0.00 95 1011.4
20260906134553 72 118 2.6 6.1 0.00 0.00 0.00 95 1011.7
20260906133020 72 147 2.6 5.2 0.00 0.00 0.00 95 1011.8
20260906131537 72 128 1.7 4.3 0.00 0.00 0.00 95 1011.8
20260906130045 71 86 0.9 3.5 0.00 0.00 0.00 95 1011.8
20260906124528 71 117 0.9 3.5 0.00 0.00 0.00 95 1011.6
20260906123043 71 99 0.9 2.6 0.00 0.00 0.00 95 1011.4
20260906121613 71 99 1.7 3.5 0.00 0.00 0.00 95 1011.2
20260906120131 71 113 1.7 4.3 0.00 0.00 0.00 95 1011.1
20260906114534 71 123 2.6 5.2 0.00 0.00 0.00 95 1011.0
20260906113058 71 82 0.0 4.3 0.00 0.00 0.00 95 1011.0
20260906111609 71 81 0.9 4.3 0.00 0.00 0.00 95 1011.1
20260906110006 71 81 2.6 5.2 0.00 0.00 0.00 95 1011.0
20260906104553 71 119 0.9 2.6 0.00 0.00 0.00 95 1011.1
20260906103054 71 131 1.7 4.3 0.00 0.00 0.00 95 1011.1
20260906101605 71 101 2.6 4.3 0.00 0.00 0.00 95 1011.2
20260906100010 71 131 2.6 5.2 0.00 0.00 0.00 94 1011.2
20260906094524 71 113 2.6 4.3 0.00 0.00 0.00 94 1011.2
20260906093119 71 117 1.7 5.2 0.00 0.00 0.00 94 1011.1
20260906091543 71 123 2.6 4.3 0.00 0.00 0.00 94 1011.0
20260906090039 71 119 2.6 4.3 0.00 0.00 0.00 94 1011.1
20260906084551 71 127 2.6 4.3 0.00 0.00 0.00 94 1011.0
20260906083059 71 111 1.7 4.3 0.00 0.00 0.00 94 1010.9
20260906081600 71 136 2.6 5.2 0.00 0.00 0.00 94 1010.8
20260906080047 71 135 2.6 7.0 0.00 0.00 0.00 94 1010.7
20260906074546 71 124 2.6 6.1 0.00 0.00 0.00 94 1010.8
20260906073008 70 129 4.3 7.8 0.00 0.00 0.00 93 1010.4
20260906071521 70 100 2.6 7.0 0.00 0.00 0.00 93 1010.7
20260906070025 70 123 2.6 5.2 0.00 0.00 0.00 93 1010.9
20260906064534 70 128 2.6 6.1 0.00 0.00 0.00 93 1011.0
20260906063045 70 118 1.7 6.1 0.00 0.00 0.00 92 1010.9
20260906061600 70 155 4.3 7.0 0.00 0.00 0.00 92 1010.8
20260906054611 70 123 1.7 5.2 0.00 0.00 0.00 92 1011.4
20260906053023 70 124 2.6 5.2 0.00 0.00 0.00 91 1011.4
20260906051517 70 121 2.6 5.2 0.00 0.00 0.00 91 1011.3
20260906050028 69 121 2.6 4.3 0.00 0.00 0.00 90 1011.4
20260906044506 69 117 1.7 3.5 0.00 0.00 0.00 90 1011.5
20260906043015 70 113 0.9 4.3 0.00 0.00 0.00 89 1011.4
20260906041517 70 131 0.9 2.6 0.00 0.00 0.00 88 1011.3
20260906040016 70 84 1.7 3.5 0.00 0.00 0.00 87 1011.1
20260906034527 70 129 0.9 2.6 0.00 0.00 0.00 87 1010.7
20260906033028 71 114 1.7 3.5 0.00 0.00 0.00 86 1010.8
20260906031506 71 134 1.7 3.5 0.00 0.00 0.00 87 1011.0
20260906030021 71 134 0.9 2.6 0.00 0.00 0.00 86 1011.0
20260906024524 71 134 1.7 3.5 0.00 0.00 0.00 87 1010.6
20260906023044 71 134 1.7 2.6 0.00 0.00 0.00 86 1010.4
20260906021610 71 134 0.9 2.6 0.00 0.00 0.00 85 1010.2
20260906020107 72 109 0.9 2.6 0.00 0.00 0.00 84 1010.2
20260906014508 73 109 0.9 1.7 0.00 0.00 0.00 82 1010.1
20260906013042 74 109 0.9 3.5 0.00 0.00 0.00 80 1010.2
20260906011606 75 84 0.9 2.6 0.00 0.00 0.00 78 1010.1
20260906010020 76 115 1.7 7.0 0.00 0.00 0.00 75 1010.0
20260906004507 77 110 3.5 7.0 0.00 0.00 0.00 74 1010.0
20260906003109 78 97 1.7 5.2 0.00 0.00 0.00 72 1009.9
20260906001511 80 146 5.2 11.3 0.00 0.00 0.00 69 1009.7
20260906000035 81 96 4.3 11.3 0.00 0.00 0.00 68 1009.4
20260905234529 82 127 5.2 11.3 0.00 0.00 0.00 67 1009.4
20260905233028 82 92 5.2 12.2 0.00 0.00 0.00 66 1009.4
20260905231540 83 97 4.3 11.3 0.00 0.00 0.00 66 1009.4
20260905230018 0 0.0 0.0 0.00 0.00 0.00 1009.4
20260905224559 0 0.0 0.0 0.00 0.00 0.00 1009.3
20260905223003 0 0.0 0.0 0.00 0.00 0.00 1009.1
20260905221525 0 0.0 0.0 0.00 0.00 0.00 1008.9
20260905220040 0 0.0 0.0 0.00 0.00 0.00 1008.8
20260905214545 0 0.0 0.0 0.00 0.00 0.00 1009.0
20260905213019 0 0.0 0.0 0.00 0.00 0.00 1009.1
20260905211642 0 0.0 0.0 0.00 0.00 0.00 1009.2
20260905210058 0 0.0 0.0 0.00 0.00 0.00 1009.2
20260905204605 0 0.0 0.0 0.00 0.00 0.00 1009.3
20260905203016 0 0.0 0.0 0.00 0.00 0.00 1009.1
20260905201607 0 0.0 0.0 0.00 0.00 0.00 1009.2
20260905194558 0 0.0 0.0 0.00 0.00 0.00 1009.4